Notices

What's New in latest Release from April 7th, 2021:

- Updated Glossary, including Speed of Maximum Gust, and Total Hourly Precipitation

- Updated national and regional climate services offices contacts and prices information

- Addition of station inventory lists for 1981-2010, 1971-2000, and 1961-1990 Normals.

If you haven't already, please take our survey and provide feedback about our website: https://eccc.sondage-survey.ca/f/LanguageSelection.aspx?s=442ca660-fcf1-47c0-95a9-59707d6fd709

Hourly Data Report for November 04, 2003

TORONTO CITY
ONTARIO

43°40'00.000" N
79°24'00.000" W
112.50 m
6158355
71508
XTO

Download Data

Hourly Data (November 2003)
Hourly Data Report for November 4, 2003
TIME
LST
Temp Definition
°C
Dew Point Definition
°C
Rel Hum Definition
%
Precip. Amount Definition
mm

Wind Dir Definition
10's deg

Wind Spd Definition
km/h
Visibility Definition
km
Stn Press Definition
kPa
Hmdx Definition


Wind Chill Definition


Weather Definition


00:00 7.1 6.4 95   LegendMM LegendMM LegendMM 100.77     LegendNANA
01:00 7.1 5.7 91   LegendMM LegendMM LegendMM 100.83     LegendNANA
02:00 6.9 5.5 91   LegendMM LegendMM LegendMM 100.81     LegendNANA
03:00 5.9 5.2 95   LegendMM LegendMM LegendMM 100.78     LegendNANA
04:00 5.4 4.7 95   LegendMM LegendMM LegendMM 100.77     LegendNANA
05:00 5.6 4.8 95   LegendMM LegendMM LegendMM 100.75     LegendNANA
06:00 5.2 4.5 95   LegendMM LegendMM LegendMM 100.80     LegendNANA
07:00 4.7 3.9 95   LegendMM LegendMM LegendMM 100.79     LegendNANA
08:00 4.5 3.5 93   LegendMM LegendMM LegendMM 100.70     LegendNANA
09:00 4.7 3.1 89   LegendMM LegendMM LegendMM 100.69     LegendNANA
10:00 4.8 3.2 89   LegendMM LegendMM LegendMM 100.65     LegendNANA
11:00 5.0 3.8 92   LegendMM LegendMM LegendMM 100.59     LegendNANA
12:00 5.1 4.1 93   LegendMM LegendMM LegendMM 100.49     LegendNANA
13:00 5.2 4.1 93   LegendMM LegendMM LegendMM 100.38     LegendNANA
14:00 4.9 3.4 90   LegendMM LegendMM LegendMM 100.33     LegendNANA
15:00 4.6 3.5 93   LegendMM LegendMM LegendMM 100.29     LegendNANA
16:00 4.9 4.1 95   LegendMM LegendMM LegendMM 100.28     LegendNANA
17:00 4.9 4.3 96   LegendMM LegendMM LegendMM 100.23     LegendNANA
18:00 4.9 4.5 97   LegendMM LegendMM LegendMM 100.16     LegendNANA
19:00 5.0 4.9 99   LegendMM LegendMM LegendMM 100.12     LegendNANA
20:00 5.2 5.1 99   LegendMM LegendMM LegendMM 100.10     LegendNANA
21:00 5.7 5.7 100   LegendMM LegendMM LegendMM 100.08     LegendNANA
22:00 6.1 6.1 100   LegendMM LegendMM LegendMM 99.97     LegendNANA
23:00 5.1 5.1 100   LegendMM LegendMM LegendMM 99.95     LegendNANA

Notes on Data Quality.

Legend

  • E = Estimated
  • M = Missing
  • NA = Not Available*
  • [empty] = Indicates an unobserved value
Date modified: